DL2GPS-3 Weather Reports


time (UTC)temp
F
wind
direction
speed
knots
gust
knots
rain 1hr
in
rain 24hr
in
rain mn
in
humidity
%
barometer
mb
20260506013912 46 13.9 13.9 0.00 0.00 0.00 10 1009.7
20260506012908 46 13.9 13.9 0.00 0.00 0.00 10 1009.7
20260506011903 45 13.0 13.9 0.00 0.00 0.00 10 1010.0
20260506010859 45 13.0 13.9 0.00 0.00 0.00 10 1009.7
20260506005853 45 13.0 13.9 0.00 0.00 0.00 10 1009.8
20260506004848 45 13.0 13.9 0.00 0.00 0.00 10 1009.8
20260506003843 45 13.0 13.9 0.00 0.00 0.00 10 1009.8
20260506002839 45 13.0 13.9 0.00 0.00 0.00 10 1009.9
20260506001833 45 13.0 14.8 0.00 0.00 0.00 10 1009.9
20260506000829 45 13.0 13.9 0.00 0.00 0.00 10 1010.0
20260505235824 45 13.0 13.0 0.00 0.00 0.00 10 1010.1
20260505234819 45 13.0 13.9 0.00 0.00 0.00 10 1010.2
20260505233814 45 13.0 14.8 0.00 0.00 0.00 10 1010.2
20260505232809 45 13.0 13.9 0.00 0.00 0.00 10 1010.5
20260505231804 46 13.0 14.8 0.00 0.00 0.00 10 1010.4
20260505230759 46 13.0 13.9 0.00 0.00 0.00 10 1010.5
20260505225754 45 13.9 13.9 0.00 0.00 0.00 10 1010.4
20260505224750 46 13.9 14.8 0.00 0.00 0.00 10 1010.5
20260505223745 46 13.0 13.9 0.00 0.00 0.00 10 1010.4
20260505222740 46 13.9 13.9 0.00 0.00 0.00 10 1010.6
20260505221735 45 13.0 13.9 0.00 0.00 0.00 10 1010.7
20260505220729 46 13.0 13.9 0.00 0.00 0.00 10 1010.7
20260505215724 46 13.0 14.8 0.00 0.00 0.00 10 1010.7
20260505214721 47 13.0 13.9 0.00 0.00 0.00 10 1010.7
20260505213720 47 13.0 13.9 0.00 0.00 0.00 10 1010.5
20260505212719 47 13.0 13.9 0.00 0.00 0.00 10 1010.5
20260505211717 47 13.0 13.9 0.00 0.00 0.00 10 1010.5
20260505210717 47 13.0 13.0 0.00 0.00 0.00 10 1010.6
20260505205716 47 13.0 14.8 0.00 0.00 0.00 10 1010.6
20260505204716 47 13.0 13.9 0.00 0.00 0.00 10 1010.5
20260505203714 47 13.0 13.9 0.00 0.00 0.00 10 1010.5
20260505202713 47 13.0 13.9 0.00 0.00 0.00 10 1010.3
20260505201712 47 13.0 13.9 0.00 0.00 0.00 10 1010.3
20260505200711 48 13.0 14.8 0.00 0.00 0.00 10 1010.2
20260505195711 48 13.0 13.9 0.00 0.00 0.00 10 1010.1
20260505194710 48 13.0 14.8 0.00 0.00 0.00 10 1010.1
20260505193709 48 13.0 13.9 0.00 0.00 0.00 10 1010.1
20260505192709 48 13.0 13.0 0.00 0.00 0.00 10 1010.0
20260505191708 48 13.0 13.9 0.00 0.00 0.00 10 1010.1
20260505190707 49 13.0 13.9 0.00 0.00 0.00 10 1009.8
20260505185706 49 13.0 13.9 0.00 0.00 0.00 10 1009.8
20260505184705 49 13.0 13.9 0.00 0.00 0.00 10 1010.0
20260505183704 49 13.0 13.9 0.00 0.00 0.00 10 1009.9
20260505182703 50 13.0 13.9 0.00 0.00 0.00 10 1009.9
20260505181703 50 13.0 13.9 0.00 0.00 0.00 10 1009.8
20260505180702 50 13.0 14.8 0.00 0.00 0.00 10 1009.7
20260505175701 50 13.0 13.9 0.00 0.00 0.00 10 1009.7
20260505174701 50 13.0 13.9 0.00 0.00 0.00 10 1009.7
20260505173700 50 13.0 13.0 0.00 0.00 0.00 10 1009.7
20260505172659 50 13.0 14.8 0.00 0.00 0.00 10 1009.6
20260505171658 50 13.0 13.9 0.00 0.00 0.00 10 1009.5
20260505170657 51 13.0 13.9 0.00 0.00 0.00 10 1009.6
20260505165656 51 13.0 13.9 0.00 0.00 0.00 10 1009.6
20260505164655 51 13.0 14.8 0.00 0.00 0.00 10 1009.6
20260505163654 51 13.0 13.9 0.00 0.00 0.00 10 1009.7
20260505162653 51 13.0 14.8 0.00 0.00 0.00 10 1009.6
20260505161653 51 13.0 13.9 0.00 0.00 0.00 10 1009.5
20260505160652 51 13.0 13.9 0.00 0.00 0.00 10 1009.4
20260505152648 52 13.0 13.9 0.00 0.00 0.00 10 1009.8
20260505151647 54 13.0 13.9 0.00 0.00 0.00 10 1009.9
20260505150646 57 13.0 13.9 0.00 0.00 0.00 10 1009.5
20260505140642 61 13.0 13.9 0.00 0.00 0.00 85 1009.3
20260505124637 56 13.0 14.8 0.00 0.00 0.00 10 1010.0
20260505123636 54 13.0 13.9 0.00 0.00 0.00 10 1010.1
20260505122635 54 13.0 13.9 0.00 0.00 0.00 10 1010.2
20260505121634 54 13.0 13.9 0.00 0.00 0.00 10 1010.2
20260505120633 54 13.0 14.8 0.00 0.00 0.00 10 1010.4
20260505115632 54 13.0 13.9 0.00 0.00 0.00 10 1010.4
20260505114632 54 13.0 14.8 0.00 0.00 0.00 10 1010.4
20260505113631 54 13.0 13.0 0.00 0.00 0.00 10 1010.4
20260505112630 54 13.0 13.9 0.00 0.00 0.00 10 1010.5
20260505111629 54 13.0 14.8 0.00 0.00 0.00 10 1010.5
20260505110628 54 13.0 14.8 0.00 0.00 0.00 10 1010.6
20260505101623 55 13.0 13.0 0.00 0.00 0.00 10 1010.7
20260505100622 55 13.0 13.9 0.00 0.00 0.00 10 1010.7
20260505095621 57 13.0 13.9 0.00 0.00 0.00 10 1010.7
20260505094621 57 13.0 13.9 0.00 0.00 0.00 98 1010.8
20260505093620 56 13.0 13.9 0.00 0.00 0.00 10 1010.7
20260505092619 57 13.0 13.9 0.00 0.00 0.00 98 1010.8
20260505091618 57 13.0 14.8 0.00 0.00 0.00 96 1010.9
20260505090617 58 13.0 13.9 0.00 0.00 0.00 94 1010.9
20260505085617 58 13.0 13.9 0.00 0.00 0.00 96 1010.8
20260505084616 58 13.0 14.8 0.00 0.00 0.00 93 1010.9
20260505083615 57 13.0 13.9 0.00 0.00 0.00 91 1011.0
20260505082614 58 13.9 13.9 0.00 0.00 0.00 87 1010.9
20260505081613 59 13.0 13.9 0.00 0.00 0.00 83 1010.9
20260505080613 58 13.0 13.9 0.00 0.00 0.00 82 1010.9
20260505075612 58 13.0 13.9 0.00 0.00 0.00 83 1011.0
20260505074611 58 13.0 13.9 0.00 0.00 0.00 79 1011.1
20260505073610 58 13.0 13.9 0.00 0.00 0.00 88 1011.2
20260505072609 57 13.0 13.9 0.00 0.00 0.00 94 1011.2
20260505071608 55 13.0 13.9 0.00 0.00 0.00 10 1011.3
20260505070607 55 13.0 13.9 0.00 0.00 0.00 10 1011.4
20260505065606 55 13.0 13.9 0.00 0.00 0.00 10 1011.4
20260505064605 54 13.9 14.8 0.00 0.00 0.00 10 1011.4
20260505063604 53 13.0 13.9 0.00 0.00 0.00 10 1011.5
20260505062603 53 13.0 13.9 0.00 0.00 0.00 10 1011.7
20260505061603 53 13.9 13.9 0.00 0.00 0.00 10 1011.7
20260505060602 53 13.0 13.9 0.00 0.00 0.00 10 1011.7
20260505055601 54 13.0 14.8 0.00 0.00 0.00 10 1011.6
20260505054600 55 13.0 13.9 0.00 0.00 0.00 99 1011.6
20260505053559 54 13.0 13.9 0.00 0.00 0.00 10 1011.7
20260505052559 52 13.0 13.9 0.00 0.00 0.00 10 1011.6
20260505051557 50 13.0 14.8 0.00 0.00 0.00 10 1011.5
20260505050557 49 13.0 13.9 0.00 0.00 0.00 10 1011.5
20260505041551 50 13.0 13.9 0.00 0.00 0.00 10 1011.6
20260505040550 49 13.0 13.9 0.00 0.00 0.00 10 1011.5
20260505035550 51 13.0 13.9 0.00 0.00 0.00 10 1011.6
20260505034549 51 13.0 13.9 0.00 0.00 0.00 10 1011.8
20260505033548 51 13.0 13.9 0.00 0.00 0.00 10 1011.8
20260505032547 51 13.9 14.8 0.00 0.00 0.00 10 1011.8
20260505031546 51 13.0 13.9 0.00 0.00 0.00 10 1011.9
20260505030545 51 13.0 14.8 0.00 0.00 0.00 10 1011.9
20260505025544 51 13.0 13.9 0.00 0.00 0.00 10 1012.0
20260505024543 51 13.0 13.9 0.00 0.00 0.00 10 1012.2
20260505023542 50 13.0 13.9 0.00 0.00 0.00 10 1012.2
20260505022541 51 13.0 14.8 0.00 0.00 0.00 10 1012.3
20260505021540 51 13.0 13.9 0.00 0.00 0.00 10 1012.4
20260505020539 48 13.0 13.9 0.00 0.00 0.00 10 1012.5
20260505015538 48 13.0 14.8 0.00 0.00 0.00 10 1012.6
20260505014537 48 13.0 14.8 0.00 0.00 0.00 10 1012.8